User: anonymous
Location: Unspecified
(0.0000°N, 0.0000°E)
Time: 01:14:02
(UTC+02:00)
Language:

Orbus 21S - Orbit

View from above orbital plane
View from above orbital plane
View from above satellite
View from above satellite

Ground track
Ground track

The orbit data is extracted from the following two-line orbital elements,

1 20669U 90056C   14240.67611024  .00009590  00000-0  80234-2 0  3571
2 20669 024.1960 152.8452 7122861 010.0554 358.8104 02.44393512202169
Epoch (UTC): 28 August 2014 16:13:35
Eccentricity: 0.7122861
inclination: 24.1960°
perigee height: 320 km
apogee height: 33486 km
right ascension of ascending node: 152.8452°
argument of perigee: 10.0554°
revolutions per day: 2.44393512
mean anomaly at epoch: 358.8104°
orbit number at epoch: 20216

The dashed part of the orbit path shows where the satellite is in the earth's shadow,  

DLR